Terug naar catalogus

NOAA 16 DEB

ActiefPO
NORAD 41663·DEBRIS·🇺🇸 United States

Gelanceerd Sep 21, 2000 vanaf Vandenberg Space Force Base

Loading…

Volgende Passages (komende 24 uur)

TLE

VersSource: Space-Track

Epoch: Sep 13, 2026, 09:28 UTC

1 41663U 00055PC  26256.39460864  .00007940  00000-0  16714-2 0  9992
2 41663  98.8318  50.3996 0011954 199.7313 160.3424 14.59752833541539

Volg NOAA 16 DEB in realtime met AllMySat

Download on the App Store